Location: Hopville
(44.8032°N, 123.1329°W)
Time: 04:51:53
(UTC+00:00)

Cosmos 1634 Rocket - Pass Details

Date: 24 January 2021
Orbit: 960 x 991 km, 82.9° (Epoch: 26 February)

Event Time Altitude Azimuth Distance (km) Brightness Sun altitude
Rises 14:10:03 0° 187° (S) 3,629 7.0 -15.8°
Reaches altitude 10° 14:12:32 10° 188° (S) 2,687 6.4 -15.4°
Maximum altitude 14:18:41 86° 276° (W) 971 3.9 -14.3°
Drops below altitude 10° 14:24:55 10° 7° (N) 2,713 6.3 -13.3°
Sets 14:27:26 0° 8° (N) 3,667 7.0 -12.8°
